Content
SEND FEEDBACK

Daily
Averages
Monthly
Summary
United States of America

BERKELEY, MISSOURI


Home > North America > United States > Missouri
Elevation: 172 meters     Latitude: 38 45N     Longitude: 090 22W

WEATHER
 
SELECT A DAY
Number of Records: 203,371;   Date Range: 1/1/95 - 7/23/14
 
SHARE

PRINT THIS DATA

[ ← Previous Day ]
WEATHER ALMANAC - 20 APRIL, 2013
[ Next Day → ]
[ °F ]   °C
Weather ElementAverageHighLow
Temperature7.8 °C12.8 °C (2:51 pm)1.1 °C (5:51 am)
Dewpoint-2.8 °C0 °C (10:51 pm)-5.6 °C (3:51 pm)
Humidity49.9 %79 % (6:51 am)28 % (5:51 pm)
Barometer1024.7 hPa1027.8 hPa (10:51 pm)1020 hPa (1:51 am)
Wind Speed9.3 km/h18.5 km/h (7:51 pm)
Weather ElementAverage
Visibility16.1 km
Wind DirectionSE (137.8 °)

Weather ElementTotal
Precipitation---
Heating Degree Days11.4 (Base 18.3)
Averaged from 23 records on 20 April, 2013
WEATHER CONDITIONS BREAKOUT
WIND DIRECTION BREAKOUT
WEATHER BY HOUR - 20 APRIL, 2013
[ °F ]   °C
Local TimeTemperatureDewpointHumidityBarometerVisibilityWind DirectionWind SpeedGust SpeedPrecipitationEventsConditions
1:51 AM3.9 °C-2.8 °C62 %1020 hPa16.1 kmWNW (290°)11.1 km/hClear
2:51 AM3.9 °C-2.8 °C62 %1020 hPa16.1 kmNW (310°)9.3 km/hClear
3:51 AM3.3 °C-2.8 °C65 %1020.7 hPa16.1 kmNNW (330°)7.4 km/hClear
4:51 AM2.2 °C-2.8 °C70 %1022 hPa16.1 kmCalmClear
5:51 AM1.1 °C-2.8 °C75 %1022.7 hPa16.1 kmWSW (250°)5.6 km/hClear
6:51 AM1.1 °C-2.2 °C79 %1023.7 hPa16.1 kmSW (220°)7.4 km/hClear
7:51 AM5 °C-1.1 °C65 %1024.7 hPa16.1 kmCalmClear
8:51 AM5.6 °C-2.8 °C55 %1025.4 hPa16.1 kmNorth (360°)7.4 km/hPartly Cloudy
9:51 AM7.8 °C-3.3 °C46 %1026.1 hPa16.1 kmWSW (250°)5.6 km/hScattered Clouds
10:51 AM8.9 °C-2.2 °C46 %1026.4 hPa16.1 kmWSW (250°)11.1 km/hScattered Clouds
11:51 AM10 °C-2.8 °C41 %1026.4 hPa16.1 kmNNW (330°)13 km/hScattered Clouds
12:51 PM10.6 °C-2.8 °C39 %1026.1 hPa16.1 kmVariable9.3 km/hMostly Cloudy
1:51 PM11.7 °C-3.3 °C35 %1026.1 hPa16.1 kmVariable9.3 km/hMostly Cloudy
2:51 PM12.8 °C-5 °C29 %1025.7 hPa16.1 kmVariable9.3 km/hMostly Cloudy
3:51 PM11.7 °C-5.6 °C30 %1025.1 hPa16.1 kmVariable11.1 km/hMostly Cloudy
4:51 PM12.2 °C-5.6 °C29 %1025.1 hPa16.1 kmCalmMostly Cloudy
5:51 PM12.8 °C-5.6 °C28 %1025.4 hPa16.1 kmENE (60°)5.6 km/hScattered Clouds
6:51 PM11.7 °C-3.9 °C34 %1025.1 hPa16.1 kmESE (110°)14.8 km/hScattered Clouds
7:51 PM10.6 °C-1.7 °C43 %1025.4 hPa16.1 kmENE (70°)18.5 km/hScattered Clouds
8:51 PM9.4 °C-1.1 °C48 %1026.4 hPa16.1 kmEast (90°)18.5 km/hScattered Clouds
9:51 PM8.9 °C-1.7 °C48 %1027.4 hPa16.1 kmENE (70°)14.8 km/hPartly Cloudy
10:51 PM7.8 °C0 °C58 %1027.8 hPa16.1 kmEast (80°)13 km/hPartly Cloudy
11:51 PM7.2 °C0 °C60 %1027.8 hPa16.1 kmEast (100°)13 km/hPartly Cloudy
Hourly data recorded from KSTL, located 0 kilometers away from Berkeley, Missouri







STORIES FROM OUR PARTNERS